Location: *
(51.8167°N, 12.5000°E)
Time: 03:08:01
(UTC+00:00)

Cosmos 1544 Rocket - Pass Details

Date: 16 September 2019
Orbit: 604 x 632 km, 82.5° (Epoch: 18 October)

Event Time Altitude Azimuth Distance (km) Brightness Sun altitude
Exits shadow 19:44:30 53° 158° (SSE) 777 3.7 -21.2°
Maximum altitude 19:45:24 71° 98° (E) 675 3.5 -21.3°
Drops below altitude 10° 19:49:52 10° 14° (NNE) 2,025 6.4 -21.9°
Sets 19:52:08 0° 13° (NNE) 2,936 7.3 -22.2°
